Content
SEND FEEDBACK

Daily
Averages
Monthly
Summary
United States of America

CAPUTA, SOUTH DAKOTA


Home > North America > United States > South Dakota
Elevation: 3149 feet     Latitude: 44 03N     Longitude: 103 04W

WEATHER
 
SELECT A DAY
Number of Records: 200,263;   Date Range: 1/1/95 - 7/23/14
 
SHARE

PRINT THIS DATA

[ ← Previous Day ]
WEATHER ALMANAC - MARCH 26, 2013
[ Next Day → ]
[ °C ]   °F
Weather ElementAverageHighLow
Temperature25.5 °F41 °F (4:52 pm)10.9 °F (6:52 am)
Dewpoint16.1 °F23 °F (5:52 pm)8.1 °F (3:52 am)
Humidity69.2 %88 % (6:52 am)40 % (4:52 pm)
Barometer30.15 in30.26 in (1:52 am)30.08 in (4:52 pm)
Wind Speed7.2 mph12.7 mph (1:52 am)
Weather ElementAverage
Visibility10 mi
Wind DirectionSSE (145.7 °)

Weather ElementTotal
Precipitation---
Heating Degree Days39.1 (Base 65)
Averaged from 23 records on March 26, 2013
WEATHER CONDITIONS BREAKOUT
WIND DIRECTION BREAKOUT
WEATHER BY HOUR - MARCH 26, 2013
[ °C ]   °F
Local TimeTemperatureDewpointHumidityBarometerVisibilityWind DirectionWind SpeedGust SpeedPrecipitationEventsConditions
1:52 AM18.0 °F10.9 °F74 %30.26 in10.0 miSouth (180°)12.7 mphClear
2:52 AM15.1 °F9.0 °F77 %30.23 in10.0 miSE (140°)9.2 mphClear
3:52 AM12.9 °F8.1 °F81 %30.21 in10.0 miSE (140°)8.1 mphClear
4:52 AM14.0 °F9.0 °F80 %30.18 in10.0 miSE (140°)6.9 mphClear
5:52 AM12.0 °F8.1 °F84 %30.18 in10.0 miSE (140°)5.8 mphClear
6:52 AM10.9 °F8.1 °F88 %30.18 in10.0 miSE (140°)4.6 mphClear
7:52 AM15.1 °F10.9 °F84 %30.18 in10.0 miCalmClear
8:52 AM19.9 °F12.9 °F74 %30.16 in10.0 miSE (130°)4.6 mphClear
9:52 AM24.1 °F16.0 °F71 %30.14 in10.0 miESE (120°)4.6 mphClear
10:52 AM30.0 °F19.0 °F64 %30.13 in10.0 miENE (60°)3.5 mphClear
11:52 AM30.0 °F19.0 °F64 %30.12 in10.0 miNorth (10°)8.1 mphClear
12:52 PM30.9 °F19.0 °F61 %30.12 in10.0 miNorth (10°)6.9 mphClear
1:52 PM32.0 °F19.9 °F61 %30.12 in10.0 miNorth (350°)8.1 mphClear
2:52 PM35.1 °F21.0 °F57 %30.10 in10.0 miNorth (10°)9.2 mphClear
3:52 PM37.9 °F21.9 °F53 %30.09 in10.0 miNorth (350°)8.1 mphClear
4:52 PM41.0 °F18.0 °F40 %30.08 in10.0 miNorth (360°)11.5 mphClear
5:52 PM39.9 °F23.0 °F51 %30.10 in10.0 miNorth (10°)8.1 mphClear
6:52 PM35.1 °F21.0 °F57 %30.12 in10.0 miNorth (10°)5.8 mphClear
7:52 PM30.9 °F19.9 °F64 %30.13 in10.0 miNorth (10°)11.5 mphClear
8:52 PM28.9 °F19.0 °F67 %30.14 in10.0 miNNW (330°)5.8 mphClear
9:52 PM26.1 °F19.9 °F78 %30.16 in10.0 miNorth (360°)5.8 mphClear
10:52 PM24.1 °F19.0 °F81 %30.15 in10.0 miNNE (30°)9.2 mphClear
11:52 PM23.0 °F18.0 °F81 %30.15 in10.0 miNW (320°)6.9 mphClear
Hourly data recorded from KRAP, located miles away from Caputa, South Dakota







STORIES FROM OUR PARTNERS